Regional Weather Roundup
Issued by NWS Midland/Odessa, TX

Skip options and go directly to product.
Home | Oldest Version | Next Version | Current Version | All | Text Only | Save Text | Print | Product List | Glossary On

Skip product version selection by date and time.   
332
ASUS44 KMAF 281701
RWRMAF
MIDLAND AREA WEATHER ROUNDUP
NATIONAL WEATHER SERVICE MIDLAND TX
1200 PM CDT TUE MAR 28 2017

...IN SOUTHWEST TEXAS AND SOUTHEAST NEW MEXICO...

CITY           SKY/WX    TMP DP  RH WIND       PRES   REMARKS
ALPINE         SUNNY     75  29  18 SW13      29.85F
ANDREWS        NOT AVBL
ARTESIA        SUNNY     70  37  30 NE9       29.74F
BIG SPRING     MOSUNNY   78  59  52 S22G31    29.74F
CARLSBAD       SUNNY     76  29  17 W20G28    29.72F
DRYDEN           N/A     79  64  60 SE8       29.71F
FORT STOCKTON  SUNNY     80  40  23 N6        29.74F
GUAD PASS      SUNNY     66  30  26 W40G46    29.80F
HOBBS          SUNNY     72  41  33 W10       29.76S
MARFA          SUNNY     72  27  18 S8        29.84F
MIDLAND AIRPK  SUNNY     79  54  41 S14G22    29.72F
MIDLAND INTL   SUNNY     78  52  40 SW17G23   29.72F
ODESSA           N/A     78  52  40 S17       29.73S
PECOS          SUNNY     78  33  19 N7        29.72S
PRESIDIO       FAIR      81  26  13 SW12      29.76F
SEMINOLE       MOSUNNY   73  51  44 W10       29.74F
SNYDER         CLOUDY    71  63  75 SE21      29.75F
WINK           SUNNY     77  35  21 VRB7      29.71F
$$
...OTHER STATIONS IN TEXAS...

CITY           SKY/WX    TMP DP  RH WIND       PRES   REMARKS
ABILENE        CLOUDY    71  63  75 SE17G26   29.78S
AMARILLO       TSTM      50  50 100 SE28G40   29.76F VSB 1/4
AUSTIN         PTSUNNY   81  67  62 S18G30    29.81F
BROWNSVILLE    MOSUNNY   85  68  56 SE26G35   29.79S
CORPUS CHRISTI MOSUNNY   82  70  66 SE29G38   29.80F
DALLAS FTW     CLOUDY    72  63  73 E12       29.85F
DEL RIO        CLOUDY    71  68  90 SE14      29.72F FOG
EL PASO        MOSUNNY   65  23  20 SW15G29   29.81S
HOUSTON INT    MOSUNNY   81  68  64 SE15      29.90S
LUBBOCK        CLOUDY    61  57  87 SE18      29.76F FOG
SAN ANGELO     CLOUDY    76  60  57 S9        29.73F
SAN ANTONIO    PTSUNNY   78  67  68 SE16G23   29.80F
WACO           CLOUDY    74  69  85 SE15      29.85F
WICHITA FALLS  NOT AVBL
$$
...OTHER LOCATIONS IN NEW MEXICO...

CITY           SKY/WX    TMP DP  RH WIND       PRES   REMARKS
ALAMAGORDO     SUNNY     63  30  29 S12       29.81F
ALBUQUERQUE    CLOUDY    50  36  58 N3        29.82S
CANNON AFB     CLOUDY    57  47  71 N14       29.77F
CLOVIS         CLOUDY    57  43  58 NW10      29.80F
HOLLOMAN AFB   MOSUNNY   64  24  21 SW21G26   29.82F
ROSWELL        MOSUNNY   69  37  30 E8        29.76F
RUIDOSO        SUNNY     50  27  40 S17G26    29.86S
SANTA FE       RAIN      39  39 100 W5        29.86R FOG     WCI  36
TRUTH OR CONSE CLOUDY    47  37  68 E5        29.81R
TUCUMCARI      MOSUNNY   53  48  83 NE16      29.76F
$$

  • National Weather Service
  • Southern Region Headquarters
  • 819 Taylor Street, Room 10A06
  • Fort Worth, TX 76102
  • Page Author: NWS Fort Worth
  • Web Master: SR-SRH.Webmaster@noaa.gov
  •  
  • Page last modified: 30-Sep-2016 6:36 PM UTC
USA.gov is the U.S. government's official web portal to all federal, state and local government web resources and services.